Weather History for Fort Morgan, CO

Change the Weather History Date:

Monday, September 23, 2013

  Actual Average (KAKO) Record (KAKO)
Temperature  
Mean Temperature 56 °F 60 °F  
Max Temperature 64 °F 74 °F 92 °F (1958)
Min Temperature 46 °F 46 °F 30 °F (1946)
Degree Days  
Heating Degree Days 10    
Month to date heating degree days  
Cooling Degree Days 0    
Month to date cooling degree days  
Growing Degree Days 6 (Base 50)    
Moisture  
Dew Point 49 °F    
Average Humidity 81    
Maximum Humidity 95    
Minimum Humidity 50    
Precipitation  
Precipitation 0.00 in 0.03 in 2.45 in (1940)
Month to date precipitation 0.90  
Year to date precipitation 14.39  
Sea Level Pressure  
Sea Level Pressure 29.76 in    
Wind  
Wind Speed 16 mph (NNW)    
Max Wind Speed 39 mph    
Max Gust Speed 53 mph    
Visibility 8 miles    
Events Rain    
T = Trace of Precipitation, MM = Missing Value Source: NWS Daily Summary

Daily Weather History Graph

Daily Weather History Graph

Search for Another Location

Airport:

Trip Planner

Search our weather history database for the weather conditions in past years. The results will help you decide how hot, cold, wet, or windy it might be!

Date:

Astronomy

Sep. 23, 2013 Rise Set
Actual Time 6:44 AM MDT 6:50 PM MDT
Civil Twilight 6:16 AM MDT 7:17 PM MDT
Nautical Twilight 5:45 AM MDT 7:48 PM MDT
Astronomical Twilight 5:12 AM MDT 8:21 PM MDT
Moon 9:23 PM MDT (9/23) 11:06 AM MDT (9/23)
Length of Visible Light 13h 00m
Length of Day
12h 06m
Waning Gibbous, 81% of the Moon is Illuminated
Sep 23
Waning Gibbous
Sep 26
Last Quarter
Oct 4
New
Oct 11
First Quarter
Oct 18
Full

Hourly Weather History & Observations

Time (MDT) Temp. Dew Point Humidity Pressure Visibility Wind Dir Wind Speed Gust Speed Precip Events Conditions
12:15 AM 56.3 °F 54.1 °F 92% 29.65 in 10.0 mi SSE 9.2 mph - N/A Rain Rain
12:35 AM 56.3 °F 54.0 °F 92% 29.63 in 10.0 mi SSE 3.5 mph - N/A   Drizzle
12:55 AM 56.3 °F 54.3 °F 93% 29.61 in 10.0 mi Calm Calm - N/A   Overcast
1:15 AM 56.3 °F 54.5 °F 94% 29.61 in 10.0 mi SE 3.5 mph - N/A   Overcast
1:35 AM 55.9 °F 54.5 °F 95% 29.61 in 7.0 mi SSE 3.5 mph - N/A Rain Light Rain
1:55 AM 55.8 °F 54.1 °F 94% 29.57 in 10.0 mi North 6.9 mph - N/A Rain Rain
2:15 AM 55.4 °F 53.8 °F 94% 29.56 in 10.0 mi North 9.2 mph - N/A Rain Rain
2:35 AM 55.4 °F 53.8 °F 94% 29.56 in 10.0 mi North 8.1 mph - N/A Rain Light Rain
2:55 AM 55.4 °F 53.8 °F 94% 29.56 in 10.0 mi North 8.1 mph - N/A Rain Rain
3:15 AM 55.6 °F 54.0 °F 94% 29.56 in 7.0 mi NNW 4.6 mph - N/A Rain Rain
3:35 AM 55.6 °F 54.0 °F 94% 29.56 in 7.0 mi North 8.1 mph - N/A Rain Rain
3:55 AM 55.4 °F 53.8 °F 94% 29.55 in 5.0 mi North 9.2 mph - N/A Rain Heavy Rain
4:15 AM 55.4 °F 53.8 °F 94% 29.54 in 7.0 mi NNW 13.8 mph - N/A Rain Rain
4:35 AM 55.0 °F 53.1 °F 93% 29.55 in 5.0 mi NNW 25.3 mph 32.2 mph N/A Rain Heavy Rain
4:55 AM 51.8 °F 49.6 °F 92% 29.54 in 3.0 mi NNW 24.2 mph 32.2 mph N/A Rain Heavy Rain
5:15 AM 51.8 °F 49.5 °F 92% 29.53 in 5.0 mi NNW 24.2 mph 32.2 mph N/A Rain Rain
5:35 AM 51.8 °F 49.1 °F 90% 29.53 in 7.0 mi NW 23.0 mph 33.4 mph N/A Rain Rain
5:55 AM 51.8 °F 49.1 °F 90% 29.55 in 7.0 mi NW 26.5 mph 33.4 mph N/A Rain Rain
6:15 AM 52.0 °F 48.9 °F 89% 29.54 in 5.0 mi NW 29.9 mph 39.1 mph N/A Rain Rain
6:35 AM 52.0 °F 49.1 °F 90% 29.55 in 4.0 mi NW 28.8 mph 36.8 mph N/A Rain Rain
6:55 AM 52.2 °F 48.9 °F 89% 29.55 in 5.0 mi NW 29.9 mph 39.1 mph N/A Rain Light Rain
7:15 AM 52.2 °F 48.9 °F 89% 29.55 in 5.0 mi NW 27.6 mph 41.4 mph N/A Rain Light Rain
7:35 AM 52.0 °F 48.9 °F 89% 29.56 in 3.0 mi NW 35.7 mph 44.9 mph N/A Rain Rain
7:55 AM 51.8 °F 49.1 °F 90% 29.57 in 2.5 mi NW 34.5 mph 39.1 mph N/A Rain Rain
8:15 AM 52.0 °F 49.1 °F 90% 29.59 in 3.0 mi NW 32.2 mph 41.4 mph N/A Rain Rain
8:35 AM 52.3 °F 48.9 °F 88% 29.59 in 5.0 mi NW 39.1 mph 50.6 mph N/A Rain Light Rain
8:55 AM 52.2 °F 48.6 °F 88% 29.61 in 5.0 mi NW 35.7 mph 46.0 mph N/A Rain Rain
9:15 AM 52.0 °F 48.9 °F 89% 29.63 in 4.0 mi NW 32.2 mph 44.9 mph N/A Rain Rain
9:35 AM 52.2 °F 49.1 °F 89% 29.64 in 4.0 mi NW 27.6 mph 38.0 mph N/A Rain Rain
9:55 AM 52.9 °F 49.1 °F 87% 29.66 in 5.0 mi NW 25.3 mph 36.8 mph N/A Rain Light Rain
10:15 AM 53.2 °F 49.5 °F 87% 29.68 in 5.0 mi NW 28.8 mph 39.1 mph N/A Rain Rain
10:35 AM 53.6 °F 49.5 °F 86% 29.70 in 5.0 mi NW 31.1 mph 41.4 mph N/A Rain Rain
10:55 AM 52.9 °F 48.6 °F 85% 29.72 in 7.0 mi NW 31.1 mph 46.0 mph N/A Rain Light Rain
11:15 AM 52.3 °F 47.7 °F 84% 29.74 in 7.0 mi NW 38.0 mph 49.5 mph N/A Rain Rain
11:35 AM 52.9 °F 47.3 °F 81% 29.75 in 10.0 mi NW 36.8 mph 52.9 mph N/A   Light Drizzle
11:55 AM 53.8 °F 48.4 °F 82% 29.76 in 10.0 mi NW 27.6 mph 38.0 mph N/A   Overcast
12:15 PM 55.4 °F 48.6 °F 78% 29.77 in 10.0 mi NW 26.5 mph 41.4 mph N/A   Overcast
12:35 PM 56.5 °F 47.1 °F 71% 29.79 in 10.0 mi NW 31.1 mph 44.9 mph N/A   Overcast
12:55 PM 57.2 °F 46.9 °F 69% 29.80 in 10.0 mi NW 25.3 mph 40.3 mph N/A   Overcast
1:15 PM 58.1 °F 47.7 °F 68% 29.81 in 10.0 mi NW 25.3 mph 38.0 mph N/A   Overcast
1:35 PM 59.4 °F 46.9 °F 63% 29.82 in 10.0 mi NW 26.5 mph 39.1 mph N/A   Overcast
1:55 PM 60.8 °F 46.8 °F 60% 29.83 in 10.0 mi NNW 29.9 mph 39.1 mph N/A   Scattered Clouds
2:15 PM 61.5 °F 46.6 °F 58% 29.84 in 10.0 mi NNW 29.9 mph 42.6 mph N/A   Mostly Cloudy
2:35 PM 63.1 °F 47.7 °F 57% 29.85 in 10.0 mi NNW 25.3 mph 35.7 mph N/A   Mostly Cloudy
2:55 PM 61.7 °F 46.8 °F 58% 29.85 in 10.0 mi NNW 26.5 mph 32.2 mph N/A   Mostly Cloudy
3:15 PM 61.3 °F 44.6 °F 54% 29.87 in 10.0 mi NW 24.2 mph 33.4 mph N/A   Mostly Cloudy
3:35 PM 64.6 °F 46.0 °F 51% 29.87 in 10.0 mi NW 25.3 mph 32.2 mph N/A   Scattered Clouds
3:55 PM 64.4 °F 46.6 °F 52% 29.88 in 10.0 mi North 21.9 mph 27.6 mph N/A   Mostly Cloudy
4:15 PM 63.0 °F 46.6 °F 55% 29.88 in 10.0 mi NNW 19.6 mph 26.5 mph N/A   Mostly Cloudy
4:35 PM 63.7 °F 44.8 °F 50% 29.89 in 10.0 mi NNW 20.7 mph - N/A   Mostly Cloudy
4:55 PM 64.8 °F 46.4 °F 51% 29.90 in 10.0 mi NNW 20.7 mph 26.5 mph N/A   Mostly Cloudy
5:15 PM 64.0 °F 46.4 °F 53% 29.90 in 10.0 mi NNW 13.8 mph 19.6 mph N/A   Scattered Clouds
5:35 PM 61.0 °F 45.1 °F 56% 29.91 in 10.0 mi NNW 13.8 mph 18.4 mph N/A   Clear
5:55 PM 62.2 °F 45.3 °F 54% 29.92 in 10.0 mi NNW 12.7 mph - N/A   Clear
6:15 PM 61.2 °F 46.4 °F 58% 29.93 in 10.0 mi NNW 9.2 mph - N/A   Scattered Clouds
6:35 PM 58.1 °F 46.8 °F 66% 29.94 in 10.0 mi North 8.1 mph - N/A   Scattered Clouds
7:15 PM 54.7 °F 46.9 °F 75% 29.96 in 10.0 mi NNW 9.2 mph - N/A   Mostly Cloudy
7:35 PM 53.2 °F 46.6 °F 78% 29.96 in 10.0 mi NNW 8.1 mph - N/A   Scattered Clouds
7:55 PM 52.5 °F 46.4 °F 80% 29.98 in 10.0 mi NNW 8.1 mph - N/A   Scattered Clouds
8:15 PM 51.8 °F 46.0 °F 81% 29.99 in 10.0 mi NNE 8.1 mph - N/A   Clear
8:35 PM 49.8 °F 46.4 °F 88% 30.01 in 10.0 mi NE 6.9 mph - N/A   Clear
8:55 PM 49.1 °F 46.4 °F 90% 30.02 in 10.0 mi Calm Calm - N/A   Clear
9:15 PM 50.4 °F 47.1 °F 89% 30.03 in 10.0 mi East 3.5 mph - N/A   Clear
9:35 PM 50.2 °F 47.1 °F 89% 30.03 in 10.0 mi Calm Calm - N/A   Clear
9:55 PM 49.3 °F 46.9 °F 92% 30.04 in 10.0 mi Calm Calm - N/A   Clear
10:15 PM 49.3 °F 47.5 °F 94% 30.04 in 10.0 mi Calm Calm - N/A   Clear
10:35 PM 48.6 °F 46.9 °F 94% 30.05 in 10.0 mi Calm Calm - N/A   Clear
10:55 PM 47.5 °F 45.9 °F 94% 30.05 in 10.0 mi Calm Calm - N/A   Clear
11:15 PM 49.1 °F 47.7 °F 95% 30.06 in 10.0 mi Calm Calm - N/A   Clear
11:35 PM 47.5 °F 45.7 °F 93% 30.06 in 10.0 mi WSW 5.8 mph - N/A   Clear
11:55 PM 46.9 °F 45.7 °F 95% 30.06 in 10.0 mi West 4.6 mph - N/A   Clear